Location: Lac de la Montagne noire
(46.1952°N, 74.2701°W)
Time: 16:11:34
(UTC-05:00)

Tiangong 1 - Visible Passes

Search period start: 20 November 2017 00:00
Search period end: 30 November 2017 00:00
Orbit: 285 x 308 km, 42.8° (Epoch: 20 November)

Date Brightness Start Highest point End Pass type
(mag) Time Alt. Az. Time Alt. Az. Time Alt. Az.
25 Nov 3.2 17:51:06 10° S 17:51:59 12° SSE 17:51:59 12° SSE visible
26 Nov 2.7 17:56:32 10° SSW 17:58:10 18° S 17:58:10 18° S visible
27 Nov 2.3 18:02:22 10° SW 18:04:11 25° S 18:04:11 25° S visible
28 Nov 2.3 18:08:17 10° WSW 18:10:05 29° SSW 18:10:05 29° SSW visible
29 Nov 2.5 18:14:14 10° WSW 18:15:52 28° SW 18:15:52 28° SW visible
